Regional Weather Roundup
Issued by NWS

Home | Current Version | Previous Version | Graphics & Text | Print | Product List | Glossary On
Versions: 1 2 3 4 5 6 7 8 9 10 11 12 13 14 15 16 17 18 19 20 21 22 23 24 25 26 27 28 29 30 31 32 33 34 35 36 37 38 39 40 41 42 43 44 45 46 47 48 49 50
000
ASUS43 KFSD 250002
RWRSD

WEATHER ROUNDUP FOR SOUTH DAKOTA
NATIONAL WEATHER SERVICE SIOUX FALLS SD
600 PM CST FRI FEB 24 2017

NOTE: "FAIR" INDICATES FEW OR NO CLOUDS BELOW 12,000 FEET WITH NO
SIGNIFICANT WEATHER AND/OR OBSTRUCTIONS TO VISIBILITY.


SDZ001>005-009-010-012>017-250100-
NORTHWEST AND NORTH CENTRAL SOUTH DAKOTA

CITY           SKY/WX    TMP DP  RH WIND       PRES   REMARKS
BUFFALO          N/A     29  10  45 CALM      29.98R
FAITH            N/A     27  14  58 N3        30.08R
MOBRIDGE       CLEAR     30  14  51 N7        30.09S WCI  23
$$

SDZ012>016-024>037-041>051-057-063-072>074-250100-
SOUTHWEST AND SOUTH CENTRAL SOUTH DAKOTA

CITY           SKY/WX    TMP DP  RH WIND       PRES   REMARKS
RAPID CTY ARPT CLOUDY    20  14  77 S6        30.06R WCI  12
PIERRE         PTCLDY    28  12  51 N10       30.10R WCI  19
CUSTER         CLOUDY    17  11  77 W9        29.92R WCI   6
PHILIP         PTCLDY    29  12  49 N8        30.10R WCI  21
PINE RIDGE     CLOUDY    20  15  81 W6        30.07S WCI  12
SPEARFISH      CLOUDY    23  19  86 SE3       30.00S
WINNER         MOCLDY    27  16  63 NW16      30.09R WCI  15
$$

SDZ004>011-016>023-039-040-250100-
NORTHEAST SOUTH DAKOTA

CITY           SKY/WX    TMP DP  RH WIND       PRES   REMARKS
ABERDEEN       PTCLDY    24  13  62 N18G26    30.10R WCI  10
WATERTOWN      PTCLDY    21  13  71 N24G35    29.99R WCI   4
BROOKINGS      CLOUDY    23  15  71 N20       29.96R WCI   8
SISSETON         N/A     24  16  71 N18G29    30.04R WCI  10
$$

SDZ017-020-022-023-036>040-048>070-250100-
SOUTHEAST SOUTH DAKOTA

CITY           SKY/WX    TMP DP  RH WIND       PRES   REMARKS
SIOUX FALLS    CLOUDY    26  17  68 N16       29.97R WCI  14
HURON          CLEAR     29  15  56 N24G30    30.06R WCI  15
CHAMBERLAIN    PTCLDY    32  16  51 NW17G26   30.08R WCI  21
MITCHELL       PTCLDY    30  16  56 N21       30.05R WCI  17
YANKTON        CLOUDY    25  14  63 NW13      30.01R WCI  13
$$

ABBREVIATIONS USED IN REMARKS
   TC - TEMPERATURE IN CELSIUS
  WCI - WIND CHILL INDEX
   HX - HEAT INDEX
  VSB - VISIBILITY




USA.gov is the U.S. government's official web portal to all federal, state and local government web resources and services.